Location: ??
(35.4032°N, 139.3073°E)
Time: 03:45:55
(UTC+00:00)

Meteor 2-10 - Pass Details

Date: 13 April 2024
Orbit: 738 x 866 km, 81.2° (Epoch: 25 May)

Event Time Altitude Azimuth Distance (km) Brightness Sun altitude
Rises 17:48:03 0° 354° (N) 3,400 7.7 -27.5°
Reaches altitude 10° 17:50:28 10° 356° (N) 2,476 7.0 -27.1°
Maximum altitude 17:56:06 72° 81° (E) 904 4.4 -26.1°
Enters shadow 17:59:36 24° 161° (SSE) 1,700 5.6 -25.6°
